ASA1352 KLAX-MROC

Flight info

Callsign ASA1352
Flight time N/A
Altitude 35000
Route PNDAH2 TCATE DCT PPE UL655 AVALI UT61 VER UA552 MTT/N0468F370 UA552 AUR UG436 LIB BARRA3L
Aircraft B38M/M-SDE1FGHILORVWXY/HB1

Departure

Time 2026-04-20 01:35
Airport Los Angeles International Airport (KLAX)

Arrival

Time N/A
Airport Juan Santamaría International Airport (MROC)
Time Latitude Longitude Altitude Speed Heading
2026-04-20 01:12 33.94038 -118.40246 98 ft 0 kts 75°
2026-04-20 01:21 33.94035 -118.40257 99 ft 3 kts 74°
2026-04-20 01:21 33.94031 -118.40277 98 ft 3 kts 84°
2026-04-20 01:21 33.94032 -118.40299 97 ft 3 kts 117°
2026-04-20 01:21 33.94044 -118.40313 98 ft 3 kts 161°
2026-04-20 01:22 33.94056 -118.40316 98 ft 1 kts 175°
2026-04-20 01:22 33.94059 -118.40317 98 ft 0 kts 175°
2026-04-20 01:29 33.94057 -118.40317 98 ft 1 kts 175°
2026-04-20 01:30 33.94050 -118.40316 99 ft 1 kts 175°
2026-04-20 01:30 33.94038 -118.40315 101 ft 2 kts 175°
2026-04-20 01:30 33.94023 -118.40312 100 ft 3 kts 169°
2026-04-20 01:30 33.94003 -118.40307 100 ft 7 kts 169°
2026-04-20 01:31 33.93923 -118.40296 103 ft 15 kts 173°
2026-04-20 01:31 33.93856 -118.40232 106 ft 13 kts 98°
2026-04-20 01:31 33.93865 -118.40111 107 ft 15 kts 82°
2026-04-20 01:31 33.93880 -118.39977 107 ft 17 kts 81°
2026-04-20 01:32 33.93898 -118.39820 106 ft 20 kts 84°
2026-04-20 01:32 33.93917 -118.39620 105 ft 28 kts 83°
2026-04-20 01:32 33.93942 -118.39370 104 ft 32 kts 82°
2026-04-20 01:32 33.93975 -118.39086 104 ft 36 kts 83°
2026-04-20 01:33 33.94003 -118.38787 104 ft 36 kts 83°
2026-04-20 01:33 33.94026 -118.38572 105 ft 22 kts 84°
2026-04-20 01:33 33.94044 -118.38382 106 ft 23 kts 84°
2026-04-20 01:33 33.94064 -118.38190 106 ft 19 kts 83°
2026-04-20 01:34 33.94076 -118.38049 105 ft 16 kts 96°
2026-04-20 01:34 33.94006 -118.38002 111 ft 10 kts 204°
2026-04-20 01:34 33.93980 -118.38073 112 ft 12 kts 263°
2026-04-20 01:34 33.93971 -118.38154 112 ft 10 kts 263°
2026-04-20 01:35 33.93953 -118.38330 109 ft 51 kts 263°
2026-04-20 01:35 33.93880 -118.39052 109 ft 121 kts 264°
2026-04-20 01:35 33.93766 -118.40271 207 ft 167 kts 263°
2026-04-20 01:35 33.93598 -118.41748 784 ft 178 kts 261°
2026-04-20 01:36 33.93441 -118.43220 1522 ft 176 kts 262°
2026-04-20 01:36 33.93293 -118.44712 1803 ft 188 kts 261°
2026-04-20 01:36 33.92772 -118.46260 2104 ft 214 kts 233°
2026-04-20 01:36 33.91817 -118.47795 2514 ft 241 kts 232°
2026-04-20 01:37 33.90779 -118.49400 3372 ft 249 kts 229°
2026-04-20 01:37 33.89640 -118.51061 4017 ft 264 kts 228°
2026-04-20 01:37 33.88453 -118.52781 4921 ft 269 kts 227°
2026-04-20 01:37 33.87219 -118.54493 5817 ft 272 kts 219°
2026-04-20 01:38 33.85602 -118.55588 6730 ft 268 kts 193°
2026-04-20 01:38 33.83756 -118.55711 7558 ft 269 kts 171°
2026-04-20 01:38 33.81926 -118.55276 8366 ft 273 kts 169°
2026-04-20 01:38 33.80024 -118.54804 9221 ft 276 kts 168°
2026-04-20 01:39 33.78166 -118.54329 10040 ft 279 kts 168°
2026-04-20 01:39 33.76197 -118.53813 10550 ft 294 kts 168°
2026-04-20 01:39 33.74128 -118.53264 10856 ft 315 kts 168°
2026-04-20 01:39 33.71958 -118.52642 11110 ft 335 kts 161°
2026-04-20 01:40 33.69873 -118.51250 11323 ft 356 kts 141°
2026-04-20 01:40 33.68271 -118.48882 11514 ft 378 kts 120°
2026-04-20 01:40 33.67085 -118.46003 11812 ft 391 kts 119°
2026-04-20 01:40 33.65841 -118.43068 12367 ft 395 kts 119°
2026-04-20 01:41 33.64578 -118.40116 12944 ft 399 kts 119°
2026-04-20 01:41 33.63304 -118.37151 13518 ft 402 kts 119°
2026-04-20 01:41 33.62011 -118.34148 14048 ft 405 kts 119°
2026-04-20 01:41 33.60712 -118.31134 14531 ft 409 kts 119°
2026-04-20 01:42 33.59402 -118.28099 15000 ft 412 kts 119°
2026-04-20 01:42 33.58075 -118.25028 15481 ft 416 kts 119°
2026-04-20 01:42 33.56738 -118.21937 15938 ft 419 kts 120°
2026-04-20 01:42 33.55391 -118.18823 16384 ft 422 kts 120°
2026-04-20 01:43 33.54037 -118.15693 16832 ft 425 kts 119°
2026-04-20 01:43 33.52678 -118.12532 17264 ft 428 kts 119°
2026-04-20 01:43 33.51305 -118.09342 17697 ft 431 kts 119°
2026-04-20 01:43 33.49924 -118.06139 18123 ft 434 kts 119°
2026-04-20 01:44 33.48531 -118.02907 18488 ft 437 kts 119°
2026-04-20 01:44 33.46991 -117.99781 18838 ft 437 kts 130°
2026-04-20 01:44 33.44903 -117.97189 19195 ft 437 kts 139°
2026-04-20 01:44 33.42665 -117.94700 19507 ft 441 kts 139°
2026-04-20 01:45 33.40388 -117.92221 19871 ft 444 kts 140°
2026-04-20 01:45 33.38084 -117.89747 20213 ft 447 kts 140°
2026-04-20 01:45 33.35751 -117.87262 20561 ft 450 kts 140°
2026-04-20 01:45 33.33401 -117.84768 20908 ft 453 kts 140°
2026-04-20 01:46 33.31039 -117.82265 21242 ft 456 kts 140°
2026-04-20 01:46 33.28659 -117.79746 21581 ft 459 kts 140°
2026-04-20 01:46 33.26259 -117.77208 21915 ft 462 kts 140°
2026-04-20 01:46 33.23842 -117.74654 22239 ft 465 kts 140°
2026-04-20 01:47 33.21500 -117.72181 22549 ft 468 kts 140°
2026-04-20 01:47 33.19056 -117.69599 22864 ft 470 kts 139°
2026-04-20 01:47 33.16865 -117.66680 23163 ft 476 kts 125°
2026-04-20 01:47 33.15339 -117.63167 23505 ft 480 kts 112°
2026-04-20 01:48 33.14152 -117.59433 23740 ft 483 kts 111°
2026-04-20 01:48 33.12996 -117.55655 24026 ft 485 kts 110°
2026-04-20 01:48 33.11855 -117.51857 24320 ft 487 kts 110°
2026-04-20 01:48 33.10736 -117.48081 24619 ft 489 kts 110°
2026-04-20 01:49 33.09602 -117.44247 24911 ft 491 kts 110°
2026-04-20 01:49 33.08449 -117.40346 25208 ft 494 kts 110°
2026-04-20 01:49 33.07304 -117.36478 25479 ft 496 kts 110°
2026-04-20 01:49 33.06154 -117.32600 25795 ft 497 kts 110°
2026-04-20 01:50 33.05016 -117.28766 26176 ft 496 kts 110°
2026-04-20 01:50 33.03871 -117.24910 26572 ft 495 kts 110°
2026-04-20 01:50 33.02718 -117.21037 26969 ft 494 kts 110°
2026-04-20 01:50 33.01567 -117.17174 27379 ft 493 kts 110°
2026-04-20 01:51 33.00418 -117.13321 27802 ft 492 kts 110°
2026-04-20 01:51 32.99269 -117.09475 28224 ft 491 kts 110°
2026-04-20 01:51 32.98126 -117.05651 28642 ft 490 kts 110°
2026-04-20 01:51 32.96979 -117.01821 29047 ft 490 kts 110°
2026-04-20 01:52 32.95838 -116.98015 29463 ft 488 kts 110°
2026-04-20 01:52 32.94693 -116.94204 29867 ft 488 kts 110°
2026-04-20 01:52 32.93552 -116.90409 30226 ft 487 kts 110°
2026-04-20 01:52 32.92410 -116.86611 30533 ft 487 kts 110°
2026-04-20 01:53 32.91268 -116.82824 30831 ft 487 kts 110°
2026-04-20 01:53 32.90123 -116.79025 31123 ft 487 kts 110°
2026-04-20 01:53 32.88974 -116.75224 31408 ft 487 kts 110°
2026-04-20 01:53 32.87827 -116.71432 31698 ft 487 kts 110°
2026-04-20 01:54 32.86695 -116.67694 31993 ft 487 kts 110°
2026-04-20 01:54 32.85546 -116.63903 32284 ft 487 kts 110°
2026-04-20 01:54 32.84392 -116.60106 32552 ft 487 kts 110°
2026-04-20 01:54 32.83243 -116.56323 32837 ft 487 kts 110°
2026-04-20 01:55 32.82092 -116.52540 33102 ft 487 kts 110°
2026-04-20 01:55 32.80915 -116.48761 33369 ft 487 kts 115°
2026-04-20 01:55 32.79411 -116.45156 33665 ft 485 kts 118°
2026-04-20 01:55 32.77875 -116.41584 33899 ft 486 kts 118°
2026-04-20 01:56 32.76327 -116.38009 34120 ft 486 kts 118°
2026-04-20 01:56 32.74776 -116.34440 34335 ft 486 kts 118°
2026-04-20 01:56 32.73225 -116.30873 34541 ft 486 kts 118°
2026-04-20 01:56 32.71668 -116.27300 34751 ft 486 kts 119°
2026-04-20 01:57 32.70111 -116.23729 34922 ft 487 kts 119°
2026-04-20 01:57 32.68554 -116.20161 34971 ft 487 kts 119°
2026-04-20 01:57 32.65440 -116.13036 34946 ft 485 kts 119°
2026-04-20 01:58 32.62326 -116.05927 34931 ft 486 kts 120°
2026-04-20 01:58 32.59225 -115.98862 34913 ft 486 kts 120°
2026-04-20 01:59 32.56099 -115.91752 34895 ft 485 kts 120°
2026-04-20 01:59 32.52975 -115.84662 34881 ft 485 kts 120°
2026-04-20 02:00 32.49849 -115.77583 34865 ft 485 kts 120°
2026-04-20 02:00 32.46715 -115.70497 34852 ft 485 kts 120°
2026-04-20 02:01 32.43582 -115.63429 34839 ft 485 kts 120°
2026-04-20 02:01 32.40459 -115.56396 34833 ft 486 kts 120°
2026-04-20 02:02 32.37313 -115.49324 34830 ft 486 kts 120°
2026-04-20 02:02 32.34163 -115.42258 34827 ft 486 kts 120°
2026-04-20 02:03 32.31005 -115.35189 34825 ft 486 kts 120°
2026-04-20 02:03 32.27836 -115.28108 34827 ft 487 kts 121°
2026-04-20 02:04 32.24669 -115.21045 34824 ft 487 kts 121°
2026-04-20 02:04 32.21494 -115.13981 34821 ft 487 kts 121°
2026-04-20 02:05 32.18318 -115.06924 34820 ft 487 kts 121°
2026-04-20 02:05 32.15130 -114.99856 34819 ft 487 kts 121°
2026-04-20 02:06 32.11941 -114.92799 34827 ft 487 kts 121°
2026-04-20 02:06 32.08762 -114.85778 34819 ft 488 kts 121°
2026-04-20 02:07 32.05565 -114.78731 34822 ft 488 kts 121°
2026-04-20 02:07 32.02358 -114.71674 34827 ft 488 kts 121°
2026-04-20 02:08 31.99153 -114.64637 34830 ft 488 kts 121°
2026-04-20 02:08 31.95942 -114.57598 34831 ft 488 kts 121°
2026-04-20 02:09 31.92730 -114.50571 34832 ft 488 kts 121°
2026-04-20 02:09 31.89508 -114.43537 34836 ft 488 kts 122°
2026-04-20 02:10 31.86287 -114.36518 34836 ft 488 kts 122°
2026-04-20 02:10 31.83057 -114.29491 34839 ft 488 kts 122°
2026-04-20 02:11 31.79824 -114.22473 34835 ft 488 kts 122°
2026-04-20 02:11 31.76584 -114.15452 34844 ft 488 kts 122°